Weather History for KGGP - January, 2013

Change the Weather History Date:

Wednesday, January 9, 2013

  Actual Average Record
Temperature  
Mean Temperature 37 °F -  
Max Temperature 44 °F 36 °F 44 °F (2013)
Min Temperature 30 °F 22 °F 0 °F (2015)
Degree Days  
Heating Degree Days 28    
Moisture  
Dew Point 31 °F    
Average Humidity 77    
Maximum Humidity 93    
Minimum Humidity 66    
Precipitation  
Precipitation 0.00 in - - ()
Sea Level Pressure  
Sea Level Pressure 30.30 in    
Wind  
Wind Speed 11 mph (WSW)    
Max Wind Speed 16 mph    
Max Gust Speed 20 mph    
Visibility 10 miles    
Events      
Averages and records for this station are not official NWS values.
T = Trace of Precipitation, MM = Missing Value Source: NWS Daily Summary

Daily Weather History Graph

Daily Weather History Graph

Search for Another Location

Airport or City:

Trip Planner

Search our weather history database for the weather conditions in past years. The results will help you decide how hot, cold, wet, or windy it might be!

Date:

Astronomy

Jan. 09, 2013 Rise Set
Actual Time 8:09 AM EST 5:36 PM EST
Civil Twilight 7:38 AM EST 6:07 PM EST
Nautical Twilight 7:04 AM EST 6:41 PM EST
Astronomical Twilight 6:31 AM EST 7:14 PM EST
Moon 5:47 AM EST (1/9) 3:37 PM EST (1/9)
Length of Visible Light 10h 28m
Length of Day
9h 27m
Waning Crescent, 6% of the Moon is Illuminated
Jan 9
Waning Crescent
Jan 11
New
Jan 18
First Quarter
Jan 26
Full
Feb 3
Last Quarter

Hourly Weather History & Observations

Time (EST) Temp. Windchill Dew Point Humidity Pressure Visibility Wind Dir Wind Speed Gust Speed Precip Events Conditions
12:15 AM 35.6 °F 27.5 °F 28.4 °F 75% 30.14 in 10.0 mi South 11.5 mph - N/A   Mostly Cloudy
12:35 AM 35.6 °F 28.0 °F 30.2 °F 81% 30.14 in 10.0 mi South 10.4 mph - N/A   Overcast
12:55 AM 35.6 °F 27.5 °F 30.2 °F 81% 30.13 in 10.0 mi South 11.5 mph - N/A   Overcast
1:15 AM 35.6 °F 27.5 °F 30.2 °F 81% 30.11 in 10.0 mi South 11.5 mph - N/A   Overcast
1:35 AM 35.6 °F 28.0 °F 32.0 °F 87% 30.11 in 10.0 mi South 10.4 mph - N/A   Overcast
1:55 AM 35.6 °F 28.0 °F 32.0 °F 87% 30.12 in 10.0 mi SSW 10.4 mph - N/A   Mostly Cloudy
2:55 AM 37.4 °F 29.3 °F 32.0 °F 81% 30.12 in 10.0 mi SSW 12.7 mph - N/A   Overcast
3:15 AM 41.0 °F 33.5 °F 32.0 °F 70% 30.13 in 10.0 mi SSW 13.8 mph - N/A   Overcast
3:35 AM 39.2 °F 30.8 °F 32.0 °F 75% 30.13 in 10.0 mi SW 15.0 mph - N/A   Overcast
3:55 AM 37.4 °F 28.9 °F 32.0 °F 81% 30.14 in 10.0 mi SW 13.8 mph - N/A   Overcast
4:15 AM 37.4 °F 28.9 °F 32.0 °F 81% 30.14 in 10.0 mi SW 13.8 mph 19.6 mph N/A   Overcast
4:35 AM 37.4 °F 28.9 °F 32.0 °F 81% 30.14 in 10.0 mi SW 13.8 mph - N/A   Overcast
4:55 AM 37.4 °F 28.9 °F 32.0 °F 81% 30.14 in 10.0 mi SW 13.8 mph - N/A   Overcast
5:15 AM 37.4 °F 28.5 °F 32.0 °F 81% 30.14 in 10.0 mi SW 15.0 mph - N/A   Overcast
5:55 AM 37.4 °F 29.3 °F 32.0 °F 81% 30.15 in 10.0 mi SW 12.7 mph - N/A   Overcast
6:15 AM 37.4 °F 29.3 °F 32.0 °F 81% 30.16 in 10.0 mi SW 12.7 mph - N/A   Scattered Clouds
6:35 AM 37.4 °F 28.9 °F 32.0 °F 81% 30.16 in 10.0 mi SW 13.8 mph - N/A   Clear
6:55 AM 37.4 °F 29.3 °F 32.0 °F 81% 30.17 in 10.0 mi SW 12.7 mph - N/A   Clear
7:15 AM 35.6 °F 27.5 °F 32.0 °F 87% 30.19 in 10.0 mi WSW 11.5 mph - N/A   Clear
7:35 AM 35.6 °F 27.5 °F 32.0 °F 87% 30.19 in 10.0 mi SW 11.5 mph - N/A   Clear
7:55 AM 35.6 °F 27.1 °F 32.0 °F 87% 30.21 in 10.0 mi WSW 12.7 mph - N/A   Clear
8:15 AM 35.6 °F 27.1 °F 32.0 °F 87% 30.23 in 10.0 mi WSW 12.7 mph - N/A   Clear
8:35 AM 35.6 °F 27.5 °F 32.0 °F 87% 30.24 in 10.0 mi WSW 11.5 mph - N/A   Clear
8:55 AM 35.6 °F 27.5 °F 32.0 °F 87% 30.26 in 10.0 mi WSW 11.5 mph - N/A   Clear
9:15 AM 35.6 °F 28.0 °F 32.0 °F 87% 30.28 in 10.0 mi WSW 10.4 mph - N/A   Clear
9:35 AM 37.4 °F 30.8 °F 32.0 °F 81% 30.28 in 10.0 mi WSW 9.2 mph - N/A   Clear
10:15 AM 39.2 °F 32.5 °F 32.0 °F 75% 30.29 in 10.0 mi WSW 10.4 mph - N/A   Clear
10:35 AM 41.0 °F 33.5 °F 32.0 °F 70% 30.31 in 10.0 mi WSW 13.8 mph 19.6 mph N/A   Clear
10:55 AM 41.0 °F 33.5 °F 32.0 °F 70% 30.32 in 10.0 mi West 13.8 mph - N/A   Clear
11:15 AM 41.0 °F 33.1 °F 32.0 °F 70% 30.31 in 10.0 mi WSW 15.0 mph - N/A   Clear
11:35 AM 41.0 °F 32.8 °F 32.0 °F 70% 30.31 in 10.0 mi WSW 16.1 mph 19.6 mph N/A   Clear
11:55 AM 41.0 °F 33.5 °F 32.0 °F 70% 30.31 in 10.0 mi WSW 13.8 mph - N/A   Clear
12:15 PM 41.0 °F 34.3 °F 32.0 °F 70% 30.30 in 10.0 mi WSW 11.5 mph - N/A   Clear
12:35 PM 41.0 °F 34.3 °F 32.0 °F 70% 30.30 in 10.0 mi WSW 11.5 mph - N/A   Clear
12:55 PM 42.8 °F 36.2 °F 32.0 °F 66% 30.30 in 10.0 mi WSW 12.7 mph - N/A   Clear
1:15 PM 42.8 °F 36.6 °F 32.0 °F 66% 30.30 in 10.0 mi WSW 11.5 mph - N/A   Clear
1:35 PM 42.8 °F 35.8 °F 32.0 °F 66% 30.30 in 10.0 mi WSW 13.8 mph - N/A   Clear
1:55 PM 42.8 °F 35.1 °F 33.8 °F 70% 30.31 in 10.0 mi WSW 16.1 mph - N/A   Clear
2:15 PM 44.6 °F 38.4 °F 33.8 °F 66% 30.31 in 10.0 mi WSW 12.7 mph - N/A   Clear
2:35 PM 44.6 °F 38.1 °F 33.8 °F 66% 30.32 in 10.0 mi WSW 13.8 mph 18.4 mph N/A   Clear
2:55 PM 44.6 °F 38.4 °F 33.8 °F 66% 30.33 in 10.0 mi WSW 12.7 mph - N/A   Clear
3:15 PM 44.6 °F 38.4 °F 33.8 °F 66% 30.34 in 10.0 mi WSW 12.7 mph - N/A   Clear
3:35 PM 44.6 °F 39.7 °F 33.8 °F 66% 30.35 in 10.0 mi WSW 9.2 mph 16.1 mph N/A   Clear
3:55 PM 44.6 °F 39.7 °F 35.6 °F 71% 30.36 in 10.0 mi West 9.2 mph - N/A   Clear
4:15 PM 44.6 °F 40.2 °F 35.6 °F 71% 30.36 in 10.0 mi WSW 8.1 mph - N/A   Clear
4:35 PM 42.8 °F 36.6 °F 33.8 °F 70% 30.37 in 10.0 mi WSW 11.5 mph - N/A   Clear
4:55 PM 41.0 °F 35.2 °F 33.8 °F 76% 30.38 in 10.0 mi West 9.2 mph - N/A   Clear
5:15 PM 37.4 °F 32.1 °F 32.0 °F 81% 30.39 in 10.0 mi WSW 6.9 mph - N/A   Clear
5:35 PM 35.6 °F 29.9 °F 32.0 °F 87% 30.40 in 10.0 mi SW 6.9 mph - N/A   Clear
5:55 PM 35.6 °F 27.5 °F 32.0 °F 87% 30.41 in 10.0 mi WSW 11.5 mph - N/A   Clear
6:15 PM 33.8 °F 28.6 °F 32.0 °F 93% 30.42 in 10.0 mi West 5.8 mph - N/A   Clear
6:35 PM 33.8 °F 27.0 °F 30.2 °F 87% 30.43 in 10.0 mi West 8.1 mph - N/A   Clear
6:55 PM 33.8 °F 27.0 °F 30.2 °F 87% 30.43 in 10.0 mi West 8.1 mph - N/A   Clear
7:15 PM 32.0 °F 25.6 °F 28.4 °F 87% 30.44 in 10.0 mi WSW 6.9 mph - N/A   Clear
7:35 PM 32.0 °F 24.2 °F 28.4 °F 87% 30.44 in 10.0 mi West 9.2 mph - N/A   Clear
7:55 PM 33.8 °F 27.0 °F 28.4 °F 81% 30.44 in 10.0 mi West 8.1 mph - N/A   Clear
8:15 PM 32.0 °F 24.2 °F 26.6 °F 80% 30.44 in 10.0 mi West 9.2 mph - N/A   Clear
8:35 PM 32.0 °F 24.8 °F 26.6 °F 80% 30.44 in 10.0 mi WSW 8.1 mph - N/A   Clear
8:55 PM 32.0 °F 25.6 °F 26.6 °F 80% 30.45 in 10.0 mi West 6.9 mph - N/A   Clear
9:15 PM 32.0 °F 25.6 °F 26.6 °F 80% 30.45 in 10.0 mi West 6.9 mph - N/A   Clear
9:35 PM 32.0 °F 24.2 °F 24.8 °F 75% 30.46 in 10.0 mi WSW 9.2 mph - N/A   Clear
9:55 PM 32.0 °F 24.8 °F 24.8 °F 75% 30.46 in 10.0 mi West 8.1 mph - N/A   Clear
10:15 PM 32.0 °F 26.4 °F 24.8 °F 75% 30.47 in 10.0 mi West 5.8 mph - N/A   Clear
10:35 PM 32.0 °F 26.4 °F 24.8 °F 75% 30.47 in 10.0 mi West 5.8 mph - N/A   Clear
10:55 PM 32.0 °F 27.5 °F 23.0 °F 69% 30.47 in 10.0 mi West 4.6 mph - N/A   Clear
11:15 PM 30.2 °F 24.3 °F 23.0 °F 75% 30.48 in 10.0 mi West 5.8 mph - N/A   Clear
11:35 PM 32.0 °F 28.7 °F 23.0 °F 69% 30.49 in 10.0 mi West 3.5 mph - N/A   Clear
11:55 PM 32.0 °F 26.4 °F 23.0 °F 69% 30.51 in 10.0 mi West 5.8 mph - N/A   Clear